Regional Weather Roundup
Issued by NWS

Home | Current Version | Previous Version | Text Only | Print | Product List | Glossary On
Versions: 1 2 3 4 5 6 7 8 9 10 11 12 13 14 15 16 17 18 19 20 21 22 23 24 25 26 27 28 29 30 31 32 33 34 35 36 37 38 39 40 41 42 43 44 45 46 47 48 49 50
000
ASUS43 KLOT 100009
RWRIL

ILLINOIS REGIONAL WEATHER ROUNDUP
NATIONAL WEATHER SERVICE CHICAGO/ROMEOVILLE IL
700 PM CDT SUN AUG 09 2020

NOTE: "FAIR" INDICATES FEW OR NO CLOUDS BELOW 12,000 FEET WITH NO
SIGNIFICANT WEATHER AND/OR OBSTRUCTIONS TO VISIBILITY.

* THESE STATIONS ARE NOT UNDER NWS QUALITY CONTROL. THEY ALSO MAY NOT
  REPORT WEATHER SUCH AS PRECIPITATION OR FOG.

ILZ001-002-007-009-015-016-024-100100-
NORTHWEST ILLINOIS

CITY           SKY/WX    TMP DP  RH WIND       PRES   REMARKS
MOLINE         CLOUDY    85  75  72 S8        29.90F HX  93
6HR MIN TEMP:  84; 6HR MAX TEMP:  89;

STERLING*      PTSUNNY   82  76  81 VRB3      29.93F HX  89
SAVANNA*       PTSUNNY   86  73  66 CALM      29.90F HX  93
$$

ILZ003-004-008-010-011-017-018-100100-
NORTH CENTRAL ILLINOIS

CITY           SKY/WX    TMP DP  RH WIND       PRES   REMARKS
ROCKFORD       CLOUDY    75  69  81 NW3       29.96F THUNDER
6HR MIN TEMP:  75; 6HR MAX TEMP:  88; 6HR PCP:  0.01;

FREEPORT*      MOSUNNY   75  69  81 SE7       29.94F
ROCHELLE*      PTSUNNY   82  75  81 S7        29.96S HX  88
DE KALB*       CLOUDY    80  74  83 S6        29.98S HX  84
PERU*          PTSUNNY   82  75  78 S9        29.95F HX  88
$$

ILZ005-006-012>014-019>023-100100-
NORTHEAST ILLINOIS

CITY           SKY/WX    TMP DP  RH WIND       PRES   REMARKS
CHICAGO-OHARE  CLOUDY    86  72  62 S9        29.96R HX  92
6HR MIN TEMP:  86; 6HR MAX TEMP:  93;

CHICAGO-MIDWAY MOCLDY    85  69  58 SW16G26   29.96R HX  89
6HR MIN TEMP:  85; 6HR MAX TEMP:  90;

AURORA         CLOUDY    82  73  74 S7        29.97R HX  87
6HR MIN TEMP:  82; 6HR MAX TEMP:  89;

JOLIET*        CLOUDY    84  73  68 SW5       29.97R HX  90
WAUKEGAN       CLOUDY    84  71  65 SW9       29.95R HX  89
6HR MIN TEMP:  82; 6HR MAX TEMP:  88;

DUPAGE AIRPORT CLOUDY    83  71  67 SW9       29.97R HX  87
6HR MIN TEMP:  83; 6HR MAX TEMP:  90;

KANKAKEE*      PTCLDY    82  72  69 S8        29.99R HX  87
WHEELING       MOCLDY    87  71  58 SW8G18    29.97R HX  93
6HR MIN TEMP:  87; 6HR MAX TEMP:  94;

MORRIS*        CLOUDY    82  73  73 SW6       29.96R HX  88
ROMEOVILLE*    CLOUDY    83  72  69 SW12      29.97R HX  87
NORTHERLY ISL    N/A     84  68  58 S10         N/A  HX  87
$$

LMZ740>746-100100-
SOUTHERN LAKE MICHIGAN

STATION/POSITION SKY/WX   TEMP    WIND        PRES    VSBY  WAVE
                          AIR SEA DIR/SP/G                  HT/PER
                          (F)     (DEG/KT/KT) (MB)    (MI)  (FT/S)
SOUTHERN BUOY              76 72  170/  8/ 10 1014.3R         1/ 3
WINTHROP HARBOR            78 72  240/  4/  8   N/A           2/ 4
WILMETTE HARBOR            81 73  210/ 10/ 14 1013.8          2/ 3
HARRISON CRIB              84     210/ 17/ 19   N/A
NORTHERLY ISL              84     190/  7/ 17   N/A
CALUMET HARBOR             84     200/ 10/ 14 1014.0R
MICHIGAN CITY              84     200/ 12/ 14   N/A
MICHIGAN CITY 6N           74 74                N/A           2/ 3
$$

ILZ025>027-034>036-040-047-049-050-058-095>099-100100-
WEST-CENTRAL ILLINOIS

CITY           SKY/WX    TMP DP  RH WIND       PRES   REMARKS
QUINCY         MOSUNNY   86  76  71 S7        29.95S HX  96
GALESBURG*     PTSUNNY   83  73  72 S8        29.95F HX  89
MACOMB*        MOSUNNY   83  77  83 SE8       29.97F HX  91
JACKSONVILLE*  MOSUNNY   84  74  72 S7        29.96F HX  91
PITTSFIELD*    MOSUNNY   84  80  88 CALM      29.98S HX  97
$$

ILZ028>032-037-038-041>044-048-051>054-059>061-100100-
CENTRAL ILLINOIS

CITY           SKY/WX    TMP DP  RH WIND       PRES   REMARKS
PONTIAC        CLOUDY    82  73  73 SW10G17   29.99R HX  88
BLOOMINGTON    MOSUNNY   81  74  79 SW10      30.00F HX  86
DECATUR        MOSUNNY   82  75  79 S10       30.00F HX  89
PEORIA         MOSUNNY   82  73  74 S8        29.95F HX  87
6HR MIN TEMP:  82; 6HR MAX TEMP:  86;

LACON*         PTSUNNY   80  74  79 S5        29.94F HX  85
LINCOLN*       MOSUNNY   84  73  70 S9        29.98F HX  90
SPRINGFIELD    MOSUNNY   82  74  76 S15       29.98F HX  88
6HR MIN TEMP:  79; 6HR MAX TEMP:  85;

TAYLORVILLE    SUNNY     79  73  81 S5        30.00F HX  82
6HR MIN TEMP:  77; 6HR MAX TEMP:  83;

$$

ILZ033-039-045-046-055>057-062-063-100100-
EAST-CENTRAL ILLINOIS

CITY           SKY/WX    TMP DP  RH WIND       PRES   REMARKS
CHAMPAIGN      CLEAR     82  74  76 S8        30.01S HX  88
DANVILLE*      PTCLDY    81  73  75 S9        30.01F HX  86
RANTOUL*       CLEAR     80  75  85 S6        30.00R HX  85
MATTOON        CLEAR     80  73  79 S9        30.01S HX  84
PARIS*         CLEAR     81  75  81 CALM      30.02F HX  87
$$

ILZ079-100>102-100100-
SOUTHWEST ILLINOIS

CITY           SKY/WX    TMP DP  RH WIND       PRES   REMARKS
ALTON          PTSUNNY   82  79  89 E7        29.99S HX  93
BELLEVILLE     MOSUNNY   85  78  79 S6        29.97F HX  96
CAHOKIA*       PTSUNNY   85  74  69 S6        29.97F HX  92
SPARTA*        LGT RAIN  83  77  83 SE6       30.01F HX  91
$$

ILZ064>066-069>071-074>076-080>082-084>086-088>090-092>094-100100-
SOUTH-CENTRAL ILLINOIS

CITY           SKY/WX    TMP DP  RH WIND       PRES   REMARKS
CARBONDALE     PTCLDY    84  77  79 S6        30.02S HX  94
6HR MIN TEMP:  84; 6HR MAX TEMP:  89;

CAIRO*         CLEAR     86  76  72 SW3       30.03S HX  96
EFFINGHAM*     PTCLDY    81  74  79 CALM      30.03F HX  86
MARION         MOCLDY    82  79  89 S6        30.04S HX  93
MT. VERNON     CLEAR     82  74  76 SE6       30.02F HX  88
CENTRALIA*     CLEAR     80  75  86 SE5       30.00F HX  84
SALEM*         CLEAR     82  72  73 CALM      30.01F HX  86
METROPOLIS*    MOCLDY    81  73  76 E6        30.04S HX  86
$$

ILZ067-068-072-073-078-083-087-091-100100-
SOUTHEAST ILLINOIS

CITY           SKY/WX    TMP DP  RH WIND       PRES   REMARKS
FLORA*         CLEAR     81  73  78 S7        30.02F HX  85
FAIRFIELD*     PTCLDY    80  74  80 CALM      30.02F HX  84
HARRISBURG*    PTCLDY    79  78  97 NE3       30.04R HX  83
ROBINSON*      CLEAR     79  74  84 S6        30.03F HX  82
CARMI*         PTCLDY    81  75  83 CALM      30.03S HX  86
$$

ABBREVIATIONS USED IN REMARKS
   TC - TEMPERATURE IN CELSIUS
  WCI - WIND CHILL INDEX
   HX - HEAT INDEX
  VSB - VISIBILITY
$$





USA.gov is the U.S. government's official web portal to all federal, state and local government web resources and services.